Location: Daouli
(14.8671°N, 3.2030°W)
Time: 02:31:01
(UTC+00:00)

Meteor 2-16 Rocket - Pass Details

Date: 29 October 2020
Orbit: 942 x 956 km, 82.6° (Epoch: 02 December)

Event Time Altitude Azimuth Distance (km) Brightness Sun altitude
Rises 18:05:16 0° 359° (N) 3,601 7.3 -5.6°
Reaches altitude 10° 18:07:46 10° 1° (N) 2,657 6.7 -6.2°
Maximum altitude 18:13:49 73° 85° (E) 988 4.4 -7.6°
Drops below altitude 10° 18:19:53 10° 170° (S) 2,664 6.8 -9.0°
Sets 18:22:23 0° 172° (S) 3,610 7.5 -9.6°
